Regional Weather Roundup
Issued by NWS

Home | Current Version | Previous Version | Graphics & Text | Print | Product List | Glossary On
Versions: 1 2 3 4 5 6 7 8 9 10 11 12 13 14 15 16 17 18 19 20 21 22 23 24 25 26 27 28 29 30 31 32 33 34 35 36 37 38 39 40 41 42 43 44 45 46 47 48 49 50
000
ASUS43 KLSX 162010
RWRMO

WEATHER SUMMARY FOR MISSOURI
NATIONAL WEATHER SERVICE SPRINGFIELD MO
200 PM CST MON JAN 16 2017

NOTE: "FAIR" INDICATES FEW OR NO CLOUDS BELOW 12,000 FEET WITH NO
       SIGNIFICANT WEATHER AND/OR OBSTRUCTIONS TO VISIBILITY.
       CURRENT SKY AND/OR WEATHER CONDITIONS ARE NOT AVAILABLE FOR
       CHILLICOTHE AND FARMINGTON.

MOZ001>031-035>038-043-044-053-054-162100-
...NORTHERN AND WESTERN MISSOURI...

CITY           SKY/WX    TMP DP  RH WIND       PRES   REMARKS
KANSAS CTY INT CLOUDY    48  44  86 E6        29.82F FOG
KANSAS C DTWN  PTSUNNY   47  32  56 E5        29.83F HAZE
LEE`S SUMMIT   MOSUNNY   56  50  80 SW14G24   29.83S
ST JOSEPH      CLOUDY    41  41 100 E5        29.84F
CHILLICOTHE      N/A     44  44 100 SE5       29.87F
KIRKSVILLE     FOG       38  38 100 E6        29.90F VSB 1/4

$$
MOZ066>068-077>081-088>096-101>105-162100-
...SOUTHWEST MISSOURI...

CITY           SKY/WX    TMP DP  RH WIND       PRES   REMARKS
SPRINGFIELD    CLOUDY    57  55  93 S12       29.85F
JOPLIN         PTSUNNY   58  52  80 SW13      29.86S
BRANSON        CLOUDY    57  57 100 S8        29.89F

$$
MOZ032>034-039>042-045>050-055>058-069>072-162100-
...CENTRAL MISSOURI...

CITY           SKY/WX    TMP DP  RH WIND       PRES   REMARKS
COLUMBIA       LGT RAIN  53  52  96 SE7       29.88S FOG
JEFFERSON CITY CLOUDY    57  54  89 SE7       29.88F
ROLLA          CLOUDY    55  53  93 S16       29.88F
SEDALIA        PTSUNNY   61  54  77 S14G22    29.86F
WHITEMAN AFB   PTSUNNY   61  57  88 S13       29.81F
WARRENSBURG    PTSUNNY   59  52  77 SW9       29.83S
OSAGE BEACH    CLOUDY    57  54  89 S9G17     29.88F

$$
MOZ051-052-059>065-162100-
...EAST CENTRAL MISSOURI...

CITY           SKY/WX    TMP DP  RH WIND       PRES   REMARKS
ST LOUIS INTL  LGT RAIN  51  48  89 SE10      29.97F FOG
SPIRIT OF STL  CLOUDY    50  49  96 E6        29.95F FOG
ST CHARLES     LGT RAIN  49  49 100 SE13      29.96F FOG

$$
MOZ072>076-082>087-097>100-106>115-162100-
...SOUTH CENTRAL AND SOUTHEAST MISSOURI...

CITY           SKY/WX    TMP DP  RH WIND       PRES   REMARKS
CAPE GIRARDEAU CLOUDY    58  55  90 SE12      30.01F
FARMINGTON     LGT RAIN  54  53  97 S10       29.98F VSB 1/2
POPLAR BLUFF   CLOUDY    58  57  97 SE5       30.00F FOG
WEST PLAINS    LGT RAIN  54  54 100 S9        29.92F FOG

$$




USA.gov is the U.S. government's official web portal to all federal, state and local government web resources and services.